Tracking 28348 objects as of 9-Dec-2023
HD Live streaming from Space Station
objects crossing your sky now

ATLAS CENTAUR R/B

Track ATLAS CENTAUR R/B now!


NORAD ID: 8621
Int'l Code: 1976-010B
Perigee: 610.1 km
Apogee: 36,493.7 km
Inclination: 21.9 °
Period: 652.6 minutes
Semi major axis: 24922 km
RCS: 16.4818 m2 (large)
Launch date: January 29, 1976
Source: United States (US)
Launch site: AIR FORCE EASTERN TEST RANGE (AFETR)

Note: This is a ROCKET BODY
Your satellite tracking list
Your tracking list is empty




NASA's NSSDC Master Catalog

Two Line Element Set (TLE):
1 08621U 76010B   23342.36021490 -.00000246  00000-0 -90033-3 0  9992
2 08621  21.8655  60.1686 7198920  48.9914   1.6890  2.20650814265201
Source of the keplerian elements: AFSPC